SCP
0 0 0 0 0 0 0 0 0 0 0 0 0 0 0 0 0 0 0 0 0 0 0 0 0 0 0 0 0 0 0 0 0 0 0 0 0 0 0 0 0 0 0 0 0 0 0 0 0
0 0 0 0 0 0 0 0 0 0 0 0 0 0 0 0 0 0 0 0 0 0 0 0 0 0 0 0 0 0 0 0 0 0 0 0 0 0 0 0 0 0 0 0 0 0 0 0 0
0 0 0 0 0 0 0 0 0 0 0 0 0 0 0 0 0 0 0 0 0 0 0 0 0 0 0 0 0 0 0 0 0 0 0 0 0 0 0 0 0 0 0 0 0 0 0 0 0
0 0 0 0 0 0 0 0 0 0 0 0 0 0 0 0 0 0 0 0 0 0 0 0 0 0 0 0 0 0 0 0 0 0 0 0 0 0 0 0 0 0 0 0 0 0 0 0 0
0 0 0 0 0 0 0 0 0 0 0 0 0 0 0 0 0 0 0 0 0 0 0 0 0 0 0 0 0 0 0 0 0 0 0 0 0 0 0 0 0 0 0 0 0 0 0 0 0
0 0 0 0 0 0 0 0 0 0 0 0 0 0 0 0 0 0 0 0 0 0 0 0 0 0 0 0 0 0 0 0 0 0 0 0 0 0 0 0 0 0 0 0 0 0 0 0 0
0 0 0 0 0 0 0 0 0 0 0 0 0 0 0 0 0 0 0 0 0 0 0 0 0 0 0 0 0 0 0 0 0 0 0 0 0 0 0 0 0 0 0 0 0 0 0 0 0
0 0 0 0 0 0 0 0 0 0 0 0 0 0 0 0 0 0 0 0 0 0 0 0 0 0 0 0 0 0 0 0 0 0 0 0 0 0 0 0 0 0 0 0 0 0 0 0 0
0 0 0 0 0 0 0 0 0 0 0 0 0 0 0 0 0 0 0 0 0 0 0 0 0 0 0 0 0 0 0 0 0 0 0 0 0 0 0 0 0 0 0 0 0 0 0 0 0
0 0 0 0 0 0 0 0 0 0 0 0 0 0 0 0 0 0 0 0 0 0 0 0 0 0 0 0 0 0 0 0 0 0 0 0 0 0 0 0 0 0 0 0 0 0 0 0 0
0 0 0 0 0 0 0 0 0 0 0 0 0 0 0 0 0 0 0 0 0 0 0 0 0 0 0 -0 -0 -0 -0 0 0 0 0 0 0 0 0 0 0 0 0 0 0 0 0 0 0
0 0 0 0 0 0 0 0 0 0 0 0 0 0 0 0 0 0 0 0 0 0 0 0 0 0 0 -0 -0 -0 -0 0 0 0 0 0 0 0 0 0 0 0 0 0 0 0 0 0 0
0 0 0 0 0 0 0 0 0 0 0 0 0 0 0 0 0 0 0 0 0 0 0 0 0 0 0 -0 -0 -0 -0 0 0 0 0 0 0 0 0 0 0 0 0 0 0 0 0 0 0
0 0 0 0 0 0 0 0 0 0 0 0 0 0 0 0 0 0 0 0 0 0 0 0 0 0 0 0 0 0 -0 0 0 0 0 0 0 0 0 0 0 0 0 0 0 0 0 0 0
0 0 0 0 0 0 0 0 0 0 0 0 0 0 0 0 0 0 0 0 0 0 0 0 0 0 0 0 0 0 0 0 0 0 0 0 0 0 0 0 0 0 0 0 0 0 0 0 0
0 0 0 0 0 0 0 0 0 0 0 0 0 0 -0 0 0 0 0 0 0 0 0 0 0 0 0 0 0 0 0 0 0 0 0 0 0 0 0 0 0 0 0 0 0 0 0 0 0
0 0 0 0 0 0 0 0 0 0 0 0 0 -0 -0 -0 -0 0 0 0 0 0 0 0 0 0 0 0 0 0 0 0 0 0 0 0 0 0 0 0 0 0 0 0 0 0 0 0 0
0 0 0 0 0 0 0 0 0 0 0 0 -0 -0 -0 -0 -0 0 0 0 0 0 0 0 0 0 0 0 0 0 0 0 0 0 0 0 0 0 0 0 0 0 0 0 0 0 0 0 0
0 0 0 0 0 0 0 0 0 0 0 0 0 0 0 0 0 0 0 0 0 0 0 0 0 0 0 0 0 0 0 0 0 0 0 0 0 0 0 0 0 0 0 0 0 0 0 0 0
0 0 0 0 0 0 0 0 0 0 0 0 0 0 0 0 0 0 0 0 0 0 0 0 0 0 0 0 0 0 0 0 0 0 0 0 0 0 0 0 0 0 0 0 0 0 0 0 0
0 0 0 0 0 0 0 0 0 0 0 0 0 0 0 0 0 0 0 0 0 0 0 0 0 0 0 0 0 0 0 0 0 0 0 0 0 0 0 0 0 0 0 0 0 0 0 0 0
0 0 0 0 0 0 0 0 0 0 0 0 0 0 0 0 0 0 0 0 0 0 0 0 0 0 0 0 0 0 0 0 0 0 0 0 0 0 0 0 0 0 0 0 0 0 0 0 0
0 0 0 0 0 0 0 0 0 0 0 0 0 0 0 0 0 0 0 0 0 0 0 0 0 0 0 0 0 0 0 0 0 0 0 0 0 0 0 0 0 0 0 0 0 0 0 0 0
0 0 0 0 0 0 0 0 0 0 0 0 0 0 0 0 0 0 0 0 0 0 0 0 0 0 0 0 0 0 0 0 0 0 0 0 0 0 0 0 0 0 0 0 0 0 0 0 0
0 0 0 0 0 0 0 0 0 0 0 0 0 0 0 0 0 0 0 0 0 0 0 0 0 0 0 0 0 0 0 0 0 0 0 0 0 0 0 0 0 0 0 0 0 0 0 0 0
0 0 0 0 0 0 0 0 0 0 0 0 0 0 0 0 0 0 0 0 0 0 0 0 0 0 0 0 0 0 0 0 0 0 0 0 0 0 0 0 0 0 0 0 0 0 0 0 0
0 0 0 0 0 0 0 0 0 0 0 0 0 0 0 0 0 0 0 0 0 0 0 0 0 0 0 0 0 0 0 0 0 0 0 0 0 0 0 0 0 0 0 0 0 0 0 0 0
0 0 0 0 0 0 0 0 0 0 0 0 0 0 0 0 0 0 0 0 0 0 0 0 0 0 0 0 0 0 0 0 0 0 0 0 0 0 0 0 0 0 0 0 0 0 0 0 0
0 0 0 0 0 0 0 0 0 0 0 0 0 0 0 0 0 0 0 0 0 0 0 0 0 0 0 0 0 0 0 0 0 0 0 0 0 0 0 0 0 0 0 0 0 0 0 0 0
0 0 0 0 0 0 0 0 0 0 0 0 0 0 0 0 0 0 0 0 0 0 0 0 0 0 0 0 0 0 0 0 0 0 0 0 0 0 0 0 0 0 0 0 0 0 0 0 0
Wind_Speed
11 7 3 4 7 5 2 3 4 3 3 2 6 10 8 5 3 4 3 9 12 9 7 8 11 14 14 14 14 14 14 15 16 16 17 17 17 17 17 17 17 17 18 18 18 18 18 18 18
5 4 5 6 5 1 4 3 3 3 6 6 7 7 7 4 4 7 5 10 12 10 8 9 11 13 14 14 14 14 14 15 15 16 17 17 17 16 17 17 17 17 18 18 18 18 18 18 18
5 3 4 5 3 4 3 3 5 3 3 5 6 5 5 5 5 5 8 12 10 8 7 9 11 13 15 14 14 14 14 14 15 16 16 16 16 16 16 16 16 17 17 17 17 17 17 17 17
4 5 5 4 2 4 5 6 6 5 3 5 6 5 3 2 5 7 12 12 11 8 7 8 12 13 15 14 14 14 14 14 15 15 16 16 16 16 16 16 16 16 16 16 16 15 16 16 17
4 4 3 1 3 3 3 6 6 7 5 4 6 5 2 3 11 15 13 12 12 8 7 8 11 12 13 14 15 14 14 14 14 15 15 15 15 15 15 15 15 15 15 15 15 14 14 15 16
4 4 3 3 4 2 3 5 5 5 5 5 6 5 2 4 11 12 12 11 10 10 7 7 10 11 11 12 13 14 14 14 14 14 14 14 15 14 14 14 14 14 14 14 13 13 13 14 14
3 3 4 4 2 3 4 5 7 7 6 6 8 7 3 5 8 11 11 11 9 8 8 6 6 8 11 12 12 12 12 12 13 13 13 13 13 13 13 12 13 13 13 13 12 11 11 12 12
3 3 3 3 4 5 3 4 4 8 6 5 7 10 8 8 9 11 11 10 8 7 7 7 6 6 6 8 11 12 11 11 12 12 11 11 11 11 11 9 11 12 12 11 10 10 10 10 10
2 2 4 5 6 5 3 3 2 3 6 4 3 7 9 13 13 13 10 8 7 8 6 7 7 6 6 6 9 9 10 11 10 9 11 9 5 5 6 8 9 10 10 9 9 8 7 7 7
3 4 7 6 6 5 4 5 7 5 5 3 4 4 11 13 14 15 14 12 11 11 9 7 7 8 7 6 6 4 5 5 5 5 5 4 4 4 5 8 8 8 7 7 7 6 5 4 3
5 6 5 4 3 5 6 5 5 11 5 7 10 12 15 12 13 14 13 12 12 11 10 8 8 8 7 6 5 3 3 3 4 5 4 4 4 3 3 2 3 3 4 2 3 3 2 1 1
4 5 5 5 2 3 6 7 5 6 7 9 15 20 17 15 15 15 15 12 11 11 10 9 9 8 7 7 5 4 4 3 3 4 5 5 3 3 3 2 2 2 1 1 1 1 0 1 1
5 5 4 5 2 3 5 5 6 5 2 7 12 15 17 16 13 11 11 11 11 11 11 11 10 10 8 7 5 5 5 4 4 4 5 6 4 4 3 3 2 3 2 2 2 1 1 0 0
5 5 5 4 3 3 5 3 5 5 5 11 15 15 14 15 13 10 10 11 12 12 12 11 11 11 9 7 6 6 5 5 5 4 6 6 5 4 4 4 3 3 3 3 2 2 1 1 1
2 2 4 4 3 3 6 3 6 5 9 12 13 13 12 11 11 13 14 13 13 13 13 12 12 11 10 9 8 6 6 5 5 5 6 6 5 5 5 4 4 4 3 3 2 2 1 1 2
3 3 5 5 4 3 8 8 8 6 11 12 11 10 11 12 13 12 12 11 12 12 13 12 10 11 10 8 7 6 6 6 5 5 5 6 6 6 5 4 4 4 3 3 2 2 1 2 2
4 7 7 5 4 4 6 7 6 7 10 11 11 11 11 11 11 12 12 12 12 13 14 13 12 12 11 9 7 6 5 6 5 5 5 6 6 6 5 4 4 4 3 2 2 2 2 2 3
7 6 6 8 5 5 6 6 5 6 10 11 10 10 10 12 16 13 13 12 12 13 13 14 13 12 10 7 5 4 4 5 4 5 6 6 6 6 5 4 4 4 3 3 2 3 2 2 2
6 7 7 7 5 6 8 8 7 6 7 8 9 10 11 14 12 10 11 11 11 12 13 15 14 12 10 8 7 7 6 4 4 5 6 7 7 7 6 4 4 4 4 4 4 3 3 2 1
5 6 6 2 1 5 6 8 6 5 8 10 12 12 13 10 8 9 9 10 12 14 14 14 15 14 13 10 8 5 4 4 4 4 5 6 7 7 6 6 5 5 4 4 4 3 2 2 2
8 7 6 5 1 1 3 5 7 7 6 7 8 9 9 12 12 11 10 10 11 12 14 13 14 14 13 10 6 4 4 3 4 4 4 6 7 6 6 6 5 5 4 4 4 4 4 3 2
11 8 7 6 6 5 6 5 8 7 7 9 11 10 10 9 9 9 9 9 9 10 9 10 12 12 12 11 10 9 7 7 6 4 4 4 5 6 6 6 5 4 4 4 4 4 4 3 3
7 7 7 6 6 3 3 4 9 3 8 11 12 12 11 9 9 8 8 8 6 5 6 7 8 10 11 12 12 11 7 5 4 4 5 4 3 3 4 4 4 4 3 3 3 3 3 3 2
5 6 4 3 3 6 8 7 9 7 10 9 9 11 10 8 6 5 4 4 3 3 3 5 7 8 10 12 12 12 10 8 6 5 5 3 2 2 2 3 3 2 2 2 1 1 1 1 1
8 8 4 2 4 8 4 6 11 9 8 9 10 10 8 7 7 6 6 5 4 4 4 4 6 6 8 10 11 11 10 9 8 6 5 5 3 2 3 4 4 3 3 3 3 3 2 1 1
11 13 10 9 8 4 3 9 10 6 4 3 4 5 6 7 6 6 6 5 4 4 4 4 6 6 6 8 9 8 8 6 5 5 5 5 4 4 4 5 5 5 5 4 4 4 3 3 2
10 8 7 7 4 3 6 7 10 4 3 2 3 6 7 7 6 6 5 4 4 4 3 4 6 5 6 7 8 8 8 8 8 8 7 6 5 5 6 6 6 5 5 5 5 4 3 3 3
9 10 6 6 8 5 5 6 7 7 10 8 8 9 8 7 6 6 5 4 4 3 3 4 5 6 6 7 8 8 9 9 9 9 8 8 7 6 7 7 6 6 6 5 5 4 4 4 3
7 7 7 6 6 8 5 9 9 11 11 13 13 10 9 9 8 6 5 4 4 4 4 5 6 7 7 8 9 10 10 10 10 9 8 8 7 7 7 6 6 6 6 5 5 4 4 4 3
5 9 10 9 7 5 5 9 4 5 5 6 9 9 9 8 7 7 6 5 5 5 5 5 6 7 7 9 10 11 10 10 10 9 8 8 8 7 6 6 6 6 5 5 5 4 4 4 3
Wind_Direction
333 335 42 53 52 48 276 250 176 138 85 66 86 91 97 92 134 145 112 131 130 132 130 124 123 121 117 114 111 108 106 102 100 98 95 92 90 88 86 85 83 83 82 82 83 81 76 71 70
328 354 45 57 82 50 273 255 164 151 153 134 85 84 78 71 83 107 121 135 131 130 127 123 122 124 121 116 113 110 107 105 103 100 97 94 92 90 87 86 85 84 83 83 83 80 75 69 70
341 42 69 70 118 188 225 211 162 138 130 99 78 67 98 120 119 124 142 137 126 123 123 126 123 127 124 119 115 112 109 105 104 101 98 96 94 92 89 87 85 85 84 83 82 79 73 69 70
34 37 52 74 246 231 197 196 165 125 74 72 98 71 68 130 142 131 136 131 123 122 124 129 125 128 126 122 119 117 113 108 105 103 101 99 97 94 91 89 87 86 84 83 81 77 72 69 70
52 69 64 341 260 267 200 191 162 130 121 95 100 94 34 2 119 127 133 129 129 127 124 126 123 126 127 125 123 120 116 111 109 107 104 103 101 98 95 92 90 89 87 85 81 77 72 70 71
50 71 110 231 256 273 214 203 144 126 123 112 104 103 79 121 125 134 133 129 132 131 125 121 120 122 124 124 124 121 118 115 113 111 108 106 104 101 98 96 94 93 90 87 83 78 73 70 68
107 118 177 206 233 246 219 184 150 143 142 152 129 111 128 157 140 134 129 126 128 129 125 120 119 118 119 120 120 119 116 115 114 112 107 102 101 101 99 97 98 95 93 90 85 80 75 71 66
138 125 186 202 198 233 213 158 158 146 153 135 125 140 168 183 144 128 124 125 127 129 132 130 123 118 117 118 120 119 116 114 114 113 108 103 101 100 98 95 99 100 98 94 90 82 73 64 58
110 112 202 207 193 224 213 150 121 129 114 79 112 167 166 152 137 130 128 129 139 145 146 143 136 130 126 126 128 123 120 121 120 120 119 108 100 98 97 104 103 104 102 99 93 83 67 50 40
135 180 217 213 198 201 201 174 153 107 99 85 61 91 132 144 146 148 153 157 160 163 165 160 151 146 142 138 133 126 127 131 129 132 127 117 119 116 113 112 112 110 106 100 93 80 58 45 26
175 203 233 254 229 190 175 175 156 129 164 179 164 153 149 156 157 161 165 167 168 167 167 169 163 158 152 144 150 143 139 144 146 150 145 133 128 122 114 112 109 109 105 85 78 66 52 54 45
204 239 236 254 250 183 177 163 154 164 200 185 166 158 160 168 171 172 172 171 167 168 171 170 168 164 160 156 159 157 157 163 165 167 157 146 144 148 151 151 156 153 144 147 128 111 97 93 75
225 250 260 252 233 192 161 168 167 197 200 141 148 157 169 177 179 177 172 170 168 172 173 172 169 169 166 162 166 168 171 176 177 171 168 163 159 166 171 175 179 183 179 180 183 190 196 210 299
217 238 262 261 232 186 156 178 148 201 138 139 155 170 180 183 179 174 174 177 179 177 176 172 172 172 169 170 172 174 176 174 174 179 179 174 168 170 173 179 185 191 190 189 188 195 205 240 270
211 226 273 251 209 192 130 158 205 181 144 154 170 179 187 191 186 189 187 184 184 182 178 176 175 172 173 174 175 174 178 173 177 184 184 180 176 176 175 178 188 196 189 185 184 198 205 248 263
165 177 223 249 192 177 143 206 231 164 155 171 182 187 194 201 201 200 195 190 187 183 182 181 178 176 177 176 176 174 178 177 181 182 184 186 184 180 177 183 196 193 182 182 188 193 221 254 262
182 190 204 238 210 168 160 210 230 169 171 182 190 196 199 206 212 209 201 196 190 188 185 184 182 182 181 177 175 173 175 180 183 182 186 191 188 182 180 191 196 183 180 191 196 200 205 248 264
192 180 185 205 212 165 182 222 233 182 185 194 197 201 203 208 214 208 203 198 192 190 187 186 185 185 180 174 170 170 176 183 183 185 190 190 192 188 184 191 193 180 184 199 201 214 218 241 260
173 170 190 213 207 168 198 220 228 202 199 208 211 210 212 218 219 208 202 196 188 187 187 187 186 185 179 182 186 189 194 189 190 192 193 193 194 192 189 189 189 186 199 209 201 200 227 247 218
205 192 197 227 184 175 207 237 246 220 211 209 207 211 215 218 218 210 202 193 190 189 189 189 189 186 185 189 189 185 176 185 193 191 196 197 196 196 193 194 196 195 201 209 204 193 199 232 186
225 204 193 185 108 107 156 262 253 247 232 234 226 219 216 208 208 204 197 195 192 192 191 190 190 188 188 181 172 162 170 177 191 198 200 203 201 199 195 198 197 195 194 209 211 199 202 229 222
226 215 184 163 149 209 177 225 259 234 240 235 231 224 222 216 206 199 192 190 192 194 190 189 187 187 185 178 180 180 189 196 197 188 195 203 201 199 196 193 193 192 193 204 209 201 204 212 235
208 187 178 176 169 173 198 193 266 239 234 238 230 222 218 209 197 193 190 188 184 179 181 185 182 185 183 182 185 186 191 190 174 174 182 193 192 186 182 177 177 183 189 199 199 197 206 209 226
154 105 84 88 123 212 207 182 253 226 214 226 225 217 208 196 185 175 163 151 148 145 161 172 175 184 183 184 186 188 187 179 171 176 174 169 136 105 114 130 135 140 145 161 173 173 178 207 233
164 139 131 168 210 233 195 198 242 238 225 220 220 211 195 179 166 160 155 152 151 153 162 170 170 177 180 181 185 186 182 176 176 171 162 147 127 106 97 98 98 95 91 86 89 90 75 65 62
189 169 167 178 201 240 200 224 246 252 258 254 220 182 164 168 167 163 161 155 153 155 159 164 166 166 167 169 171 167 161 155 149 142 134 128 119 113 102 95 90 85 84 83 82 80 70 61 55
165 192 161 129 117 169 234 264 294 263 253 225 176 165 176 173 166 160 152 146 148 147 152 158 152 146 146 145 140 135 133 126 121 115 111 109 108 104 96 92 88 80 76 75 78 72 60 58 47
161 150 124 141 156 210 248 241 233 223 226 220 207 198 188 172 163 157 152 147 141 136 124 122 129 129 125 123 122 118 114 114 115 111 108 107 103 100 97 90 86 79 71 68 73 69 54 57 41
148 160 156 154 169 169 219 254 220 210 209 210 210 198 182 176 171 163 152 141 130 118 114 113 113 113 112 111 110 108 106 107 106 105 107 107 102 98 97 97 93 87 79 74 75 69 57 55 38
173 175 160 175 206 187 185 260 257 225 238 219 204 187 178 173 165 156 149 139 133 129 124 119 117 113 112 111 108 107 107 107 106 107 105 103 99 93 94 95 92 87 81 75 75 71 57 49 32